Vega Nikolas — A8QD2 — position and weather

sailwx.info

Track history (hours):
 
Tides and Currents Weather Stations Pressure Air Temp Water Temp Dewpoint Dewpoint Depression Visibility Wind Speed Wind Dir Waves Ship Positions

Vega Nikolas

Last reported at 2014-Aug-20 10:31 UTC. Time now 2014-Aug-20 10:52 UTC.
Position N 40°41' W 074°01'.

Length 139 m; draft 7.7 m.

Type: Ship (hazmat cat A). MMSI: 636091613.

Date/timePositionNaut miles runAvg speedWind from/ knotsBaromVisibWave heightAir tempDewpointWater temp
2014-Aug-20 10:31N 40°41' W 074°01'3 2.6
2014-Aug-20 09:33N 40°39' W 074°03'9 9.2
2014-Aug-20 08:33N 40°31' W 073°59'1111.1
2014-Aug-20 07:33N 40°26' W 073°46'1111.1
2014-Aug-20 06:33N 40°19' W 073°35'1313.0
2014-Aug-20 05:34N 40°11' W 073°21'1313.3
2014-Aug-20 04:33N 40°01' W 073°09'1413.7
2014-Aug-20 03:33N 39°50' W 072°58'1413.7
2014-Aug-20 02:34N 39°39' W 072°48'1413.5
2014-Aug-20 01:33N 39°27' W 072°39'1413.6
2014-Aug-20 00:33N 39°16' W 072°30'1414.3
2014-Aug-19 23:33N 39°04' W 072°20'1514.5
2014-Aug-19 22:33N 38°51' W 072°10'1414.2
2014-Aug-19 21:34N 38°39' W 072°02'1413.9
2014-Aug-19 20:32N 38°26' W 071°54'  
Track history (hours):
 
Tides and Currents Weather Stations Pressure Air Temp Water Temp Dewpoint Dewpoint Depression Visibility Wind Speed Wind Dir Waves Ship Positions

Vega Nikolas

Last reported at 2014-Aug-20 10:31 UTC. Time now 2014-Aug-20 10:52 UTC.
Position N 40°41' W 074°01'.

Length 139 m; draft 7.7 m.

Type: Ship (hazmat cat A). MMSI: 636091613.

Date/timePositionNaut miles runAvg speedWind from/ knotsBaromVisibWave heightAir tempDewpointWater temp
2014-Aug-20 10:31N 40°41' W 074°01'3 2.6
2014-Aug-20 09:33N 40°39' W 074°03'9 9.2
2014-Aug-20 08:33N 40°31' W 073°59'1111.1
2014-Aug-20 07:33N 40°26' W 073°46'1111.1
2014-Aug-20 06:33N 40°19' W 073°35'1313.0
2014-Aug-20 05:34N 40°11' W 073°21'1313.3
2014-Aug-20 04:33N 40°01' W 073°09'1413.7
2014-Aug-20 03:33N 39°50' W 072°58'1413.7
2014-Aug-20 02:34N 39°39' W 072°48'1413.5
2014-Aug-20 01:33N 39°27' W 072°39'1413.6
2014-Aug-20 00:33N 39°16' W 072°30'1414.3
2014-Aug-19 23:33N 39°04' W 072°20'1514.5
2014-Aug-19 22:33N 38°51' W 072°10'1414.2
2014-Aug-19 21:34N 38°39' W 072°02'1413.9
2014-Aug-19 20:32N 38°26' W 071°54'  

Dump ship's entire track history